Ludington, MI

7:40 PM EDT on September 17, 2019 (GMT -0400)
Mason County

Weather History for KLDM - July, 2019

Change the Weather History Date:

Sunday, July 21, 2019

  Actual Average Record
Temperature  
Mean Temperature 70 °F -  
Max Temperature 78 °F 81 °F 91 °F (1972)
Min Temperature 61 °F 58 °F 39 °F (1992)
Cooling Degree Days 4    
Growing Degree Days 20 (Base 50)    
Moisture  
Dew Point 61 °F    
Average Humidity 78    
Maximum Humidity 98    
Minimum Humidity 48    
Precipitation  
Precipitation 0.00 in - - ()
Sea Level Pressure  
Sea Level Pressure 29.97 in    
Wind  
Wind Speed 2 mph (North)    
Max Wind Speed 12 mph    
Max Gust Speed -    
Visibility 8 miles    
Events Fog    
Averages and records for this station are not official NWS values.
T = Trace of Precipitation, MM = Missing Value Source: NWS Daily Summary

Daily Weather History Graph

Daily Weather History Graph

Search for Another Location

Airport or City:

Astronomy

Jul. 21, 2019 Rise Set
Actual Time 6:22 AM EDT 9:21 PM EDT
Civil Twilight 5:47 AM EDT 9:55 PM EDT
Nautical Twilight 5:04 AM EDT 10:39 PM EDT
Astronomical Twilight 4:12 AM EDT 11:30 PM EDT
Moon No Moon Rise 10:49 AM EDT (7/21)
Length of Visible Light 16h 07m
Length of Day
14h 58m
Waning Gibbous, 80% of the Moon is Illuminated
Jul 21
Waning Gibbous
Jul 24
Last Quarter
Jul 31
New
Aug 7
First Quarter
Aug 15
Full

Hourly Weather History & Observations

Time (EDT) Temp. Dew Point Humidity Pressure Visibility Wind Dir Wind Speed Gust Speed Precip Events Conditions
12:15 AM 64.8 °F 64.0 °F 98% 29.91 in 10.0 mi Calm Calm - N/A   Overcast
12:20 AM 64.6 °F 63.9 °F 98% 29.91 in 5.0 mi Calm Calm - N/A   Overcast
12:38 AM 64.6 °F 63.9 °F 98% 29.90 in 7.0 mi Calm Calm - N/A   Mostly Cloudy
12:56 AM 63.9 °F 63.1 °F 97% 29.91 in 1.2 mi Calm Calm - N/A   Overcast
1:15 AM 64.8 °F 63.9 °F 97% 29.92 in 10.0 mi Calm Calm - N/A   Overcast
1:35 AM 64.9 °F 64.4 °F 98% 29.92 in 10.0 mi Calm Calm - N/A   Overcast
1:59 AM 64.6 °F 63.7 °F 97% 29.92 in 7.0 mi Calm Calm - N/A   Scattered Clouds
2:17 AM 64.0 °F 63.5 °F 98% 29.92 in 3.0 mi Calm Calm - N/A   Scattered Clouds
2:35 AM 63.7 °F 63.0 °F 97% 29.92 in 10.0 mi North 3.5 mph - N/A   Mostly Cloudy
2:55 AM 63.9 °F 63.1 °F 97% 29.91 in 10.0 mi Calm Calm - N/A   Mostly Cloudy
3:15 AM 64.4 °F 63.5 °F 97% 29.92 in 10.0 mi Calm Calm - N/A   Mostly Cloudy
3:38 AM 64.4 °F 63.7 °F 98% 29.92 in 10.0 mi Calm Calm - N/A   Overcast
3:56 AM 64.0 °F 63.3 °F 97% 29.92 in 10.0 mi Calm Calm - N/A   Mostly Cloudy
4:15 AM 63.7 °F 63.0 °F 97% 29.92 in 1.0 mi Calm Calm - N/A   Mostly Cloudy
4:35 AM 63.0 °F 62.2 °F 97% 29.92 in 0.2 mi Calm Calm - N/A Fog Fog
4:59 AM 61.3 °F 60.6 °F 97% 29.92 in 0.8 mi Calm Calm - N/A   Mostly Cloudy
5:16 AM 61.0 °F 60.3 °F 97% 29.94 in 0.5 mi Calm Calm - N/A Fog Fog
5:35 AM 61.2 °F 60.4 °F 97% 29.94 in 1.5 mi Calm Calm - N/A   Mostly Cloudy
5:36 AM 61.0 °F 60.3 °F 97% 29.94 in 1.2 mi Calm Calm - N/A   Mostly Cloudy
5:55 AM 62.1 °F 61.3 °F 97% 29.94 in 1.5 mi Calm Calm - N/A   Mostly Cloudy
5:56 AM 62.2 °F 61.5 °F 97% 29.94 in 2.0 mi Calm Calm - N/A   Scattered Clouds
6:15 AM 61.3 °F 60.6 °F 97% 29.95 in 2.0 mi Calm Calm - N/A   Mostly Cloudy
6:38 AM 61.0 °F 60.3 °F 97% 29.95 in 1.0 mi Calm Calm - N/A   Mostly Cloudy
6:56 AM 61.3 °F 60.6 °F 97% 29.97 in 0.2 mi Calm Calm - N/A Fog Fog
7:15 AM 62.1 °F 61.3 °F 97% 29.97 in 0.2 mi Calm Calm - N/A Fog Fog
7:35 AM 62.6 °F 61.9 °F 97% 29.98 in 0.2 mi Calm Calm - N/A Fog Fog
7:36 AM 62.6 °F 61.9 °F 97% 29.98 in 0.2 mi Calm Calm - N/A Fog Fog
7:59 AM 63.7 °F 63.0 °F 97% 29.97 in 0.2 mi Calm Calm - N/A Fog Fog
8:17 AM 64.4 °F 63.7 °F 98% 29.99 in 0.8 mi Calm Calm - N/A   Overcast
8:35 AM 64.9 °F 64.4 °F 98% 29.99 in 1.0 mi Calm Calm - N/A   Overcast
8:55 AM 66.7 °F 66.0 °F 98% 29.99 in 5.0 mi Calm Calm - N/A   Overcast
9:15 AM 68.0 °F 67.1 °F 97% 29.99 in 10.0 mi Calm Calm - N/A   Mostly Cloudy
9:20 AM 68.7 °F 67.8 °F 97% 29.99 in 10.0 mi Calm Calm - N/A   Mostly Cloudy
9:38 AM 69.8 °F 66.0 °F 88% 29.97 in 10.0 mi Calm Calm - N/A   Scattered Clouds
9:56 AM 70.7 °F 65.5 °F 83% 29.98 in 10.0 mi Calm Calm - N/A   Clear
10:15 AM 71.8 °F 65.1 °F 79% 29.99 in 10.0 mi North 4.6 mph - N/A   Clear
10:35 AM 72.3 °F 64.8 °F 77% 29.97 in 10.0 mi Calm Calm - N/A   Mostly Cloudy
10:36 AM 72.7 °F 64.8 °F 76% 29.97 in 10.0 mi NE 3.5 mph - N/A   Mostly Cloudy
10:59 AM 75.6 °F 62.4 °F 64% 29.97 in 10.0 mi Calm Calm - N/A   Scattered Clouds
11:17 AM 76.3 °F 60.4 °F 58% 29.97 in 10.0 mi ENE 5.8 mph - N/A   Clear
11:35 AM 77.0 °F 59.2 °F 54% 29.97 in 10.0 mi ENE 6.9 mph - N/A   Clear
11:55 AM 77.9 °F 59.7 °F 53% 29.98 in 10.0 mi NNE 3.5 mph - N/A   Clear
12:15 PM 78.8 °F 60.4 °F 53% 29.99 in 10.0 mi North 5.8 mph - N/A   Clear
12:20 PM 78.4 °F 58.6 °F 50% 29.99 in 10.0 mi NE 3.5 mph - N/A   Clear
12:38 PM 78.4 °F 58.3 °F 50% 29.99 in 10.0 mi NNE 6.9 mph - N/A   Clear
12:56 PM 78.3 °F 63.9 °F 61% 29.99 in 10.0 mi NNW 8.1 mph - N/A   Clear
1:15 PM 77.4 °F 65.3 °F 66% 29.99 in 10.0 mi North 8.1 mph - N/A   Clear
1:16 PM 77.2 °F 65.3 °F 67% 29.99 in 10.0 mi North 9.2 mph - N/A   Clear
1:35 PM 76.6 °F 65.5 °F 68% 29.99 in 10.0 mi NW 10.4 mph - N/A   Clear
1:36 PM 76.6 °F 65.3 °F 68% 29.99 in 10.0 mi NW 10.4 mph - N/A   Clear
1:59 PM 75.9 °F 63.5 °F 65% 29.99 in 10.0 mi NNW 11.5 mph - N/A   Clear
2:17 PM 75.7 °F 63.0 °F 64% 29.99 in 10.0 mi NNW 10.4 mph - N/A   Clear
2:35 PM 77.0 °F 63.0 °F 62% 30.00 in 10.0 mi NNW 6.9 mph - N/A   Clear
2:55 PM 76.3 °F 61.2 °F 59% 30.00 in 10.0 mi North 6.9 mph - N/A   Clear
3:15 PM 76.8 °F 61.9 °F 60% 29.99 in 10.0 mi NNW 8.1 mph - N/A   Clear
3:20 PM 76.5 °F 61.2 °F 59% 29.99 in 10.0 mi NNW 9.2 mph - N/A   Clear
3:38 PM 76.3 °F 60.8 °F 59% 29.99 in 10.0 mi North 8.1 mph - N/A   Clear
3:56 PM 74.8 °F 61.0 °F 62% 29.97 in 10.0 mi NNW 8.1 mph - N/A   Clear
4:15 PM 74.3 °F 61.0 °F 63% 29.97 in 10.0 mi North 9.2 mph - N/A   Clear
4:16 PM 74.3 °F 60.6 °F 62% 29.97 in 10.0 mi North 10.4 mph - N/A   Clear
4:35 PM 73.9 °F 60.6 °F 63% 29.97 in 10.0 mi NNW 9.2 mph - N/A   Clear
4:59 PM 75.2 °F 60.3 °F 60% 29.97 in 10.0 mi North 9.2 mph - N/A   Clear
5:17 PM 75.4 °F 59.2 °F 57% 29.98 in 10.0 mi North 8.1 mph - N/A   Clear
5:35 PM 75.9 °F 57.7 °F 53% 29.98 in 10.0 mi North 11.5 mph - N/A   Clear
5:55 PM 76.1 °F 55.0 °F 48% 29.99 in 10.0 mi North 6.9 mph - N/A   Clear
6:15 PM 75.2 °F 54.1 °F 48% 29.99 in 10.0 mi North 9.2 mph - N/A   Clear
6:38 PM 75.4 °F 55.6 °F 50% 29.99 in 10.0 mi North 9.2 mph - N/A   Clear
6:56 PM 75.0 °F 55.4 °F 50% 29.97 in 10.0 mi North 8.1 mph - N/A   Clear
7:15 PM 74.1 °F 54.1 °F 50% 29.97 in 10.0 mi North 8.1 mph - N/A   Clear
7:35 PM 73.4 °F 54.5 °F 51% 29.98 in 10.0 mi North 5.8 mph - N/A   Clear
7:59 PM 70.2 °F 56.5 °F 62% 29.98 in 10.0 mi Calm Calm - N/A   Clear
8:17 PM 69.8 °F 57.9 °F 66% 29.98 in 10.0 mi North 6.9 mph - N/A   Clear
8:35 PM 69.4 °F 58.8 °F 69% 29.99 in 10.0 mi North 6.9 mph - N/A   Clear
8:36 PM 69.3 °F 58.8 °F 69% 29.99 in 10.0 mi North 8.1 mph - N/A   Clear
8:55 PM 68.9 °F 59.4 °F 72% 29.99 in 10.0 mi North 5.8 mph - N/A   Clear
9:15 PM 68.0 °F 59.9 °F 75% 29.99 in 10.0 mi Calm Calm - N/A   Clear
9:38 PM 67.6 °F 60.3 °F 77% 30.00 in 7.0 mi North 3.5 mph - N/A   Clear
9:56 PM 67.5 °F 60.4 °F 78% 30.01 in 10.0 mi NNE 4.6 mph - N/A   Clear
10:15 PM 67.1 °F 60.8 °F 80% 30.02 in 10.0 mi NNE 3.5 mph - N/A   Clear
10:16 PM 67.1 °F 60.6 °F 80% 30.02 in 10.0 mi NE 3.5 mph - N/A   Clear
10:35 PM 66.7 °F 60.4 °F 80% 30.02 in 10.0 mi NNE 3.5 mph - N/A   Clear
10:59 PM 66.2 °F 59.5 °F 79% 30.01 in 10.0 mi NE 4.6 mph - N/A   Clear
11:17 PM 66.2 °F 59.0 °F 78% 30.01 in 10.0 mi NE 4.6 mph - N/A   Clear
11:35 PM 65.3 °F 59.0 °F 80% 30.01 in 10.0 mi NE 3.5 mph - N/A   Clear
11:36 PM 65.3 °F 59.0 °F 80% 30.01 in 10.0 mi NNE 3.5 mph - N/A   Clear
11:55 PM 64.8 °F 58.5 °F 80% 30.02 in 10.0 mi NE 3.5 mph - N/A   Clear
11:56 PM 64.8 °F 58.5 °F 80% 30.02 in 10.0 mi NNE 3.5 mph - N/A   Clear